Weather History for KGPZ - April, 2013

Change the Weather History Date:

Tuesday, April 30, 2013

  Actual Average Record
Temperature  
Mean Temperature 52 °F -  
Max Temperature 62 °F 60 °F 86 °F (1952)
Min Temperature 44 °F 35 °F 19 °F (1966)
Degree Days  
Heating Degree Days 13    
Growing Degree Days 2 (Base 50)    
Moisture  
Dew Point 41 °F    
Average Humidity 75    
Maximum Humidity 93    
Minimum Humidity 42    
Precipitation  
Precipitation 0.02 in - - ()
Sea Level Pressure  
Sea Level Pressure 29.47 in    
Wind  
Wind Speed 10 mph (SE)    
Max Wind Speed 18 mph    
Max Gust Speed 29 mph    
Visibility 9 miles    
Events Thunderstorm    
Averages and records for this station are not official NWS values.
T = Trace of Precipitation, MM = Missing Value Source: NWS Daily Summary

Daily Weather History Graph

Daily Weather History Graph

Search for Another Location

Airport or City:

Trip Planner

Search our weather history database for the weather conditions in past years. The results will help you decide how hot, cold, wet, or windy it might be!

Date:

Astronomy

Apr. 30, 2013 Rise Set
Actual Time 5:59 AM CDT 8:24 PM CDT
Civil Twilight 5:25 AM CDT 8:58 PM CDT
Nautical Twilight 4:42 AM CDT 9:41 PM CDT
Astronomical Twilight 3:54 AM CDT 10:29 PM CDT
Moon 12:52 AM CDT (4/30) 10:24 AM CDT (4/30)
Length of Visible Light 15h 33m
Length of Day
14h 25m
Waning Gibbous, 70% of the Moon is Illuminated
Apr 30
Waning Gibbous
May 2
Last Quarter
May 9
New
May 17
First Quarter
May 24
Full

Hourly Weather History & Observations

Time (CDT) Temp. Windchill Dew Point Humidity Pressure Visibility Wind Dir Wind Speed Gust Speed Precip Events Conditions
12:15 AM 46.4 °F 42.9 °F 35.6 °F 66% 29.60 in 10.0 mi ESE 6.9 mph 16.1 mph N/A   Overcast
12:35 AM 46.4 °F 42.9 °F 35.6 °F 66% 29.59 in 10.0 mi SE 6.9 mph - N/A   Overcast
12:55 AM 46.4 °F 42.4 °F 35.6 °F 66% 29.57 in 10.0 mi ESE 8.1 mph - N/A   Overcast
1:15 AM 46.4 °F 41.5 °F 35.6 °F 66% 29.57 in 10.0 mi SE 10.4 mph - N/A   Overcast
1:35 AM 46.4 °F 41.5 °F 35.6 °F 66% 29.55 in 10.0 mi ESE 10.4 mph 17.3 mph N/A   Overcast
1:55 AM 46.4 °F 41.9 °F 37.4 °F 71% 29.53 in 10.0 mi ESE 9.2 mph - N/A   Scattered Clouds
2:15 AM 46.4 °F 42.4 °F 37.4 °F 71% 29.52 in 10.0 mi ESE 8.1 mph - N/A   Mostly Cloudy
2:35 AM 46.4 °F 42.4 °F 37.4 °F 71% 29.51 in 10.0 mi ESE 8.1 mph - N/A   Mostly Cloudy
2:55 AM 46.4 °F 41.9 °F 37.4 °F 71% 29.50 in 10.0 mi SE 9.2 mph - N/A   Scattered Clouds
3:15 AM 46.4 °F 42.4 °F 37.4 °F 71% 29.50 in 10.0 mi ESE 8.1 mph - N/A   Mostly Cloudy
3:35 AM 46.4 °F 42.4 °F 39.2 °F 76% 29.50 in 10.0 mi SE 8.1 mph - N/A   Overcast
3:55 AM 44.6 °F 39.2 °F 39.2 °F 81% 29.52 in 8.0 mi SSE 10.4 mph - N/A Thunderstorm Thunderstorm
4:15 AM 44.6 °F 39.7 °F 41.0 °F 87% 29.49 in 6.0 mi SE 9.2 mph - 0.02 in   Overcast
4:35 AM 44.6 °F 39.2 °F 41.0 °F 87% 29.46 in 10.0 mi SE 10.4 mph - 0.02 in   Mostly Cloudy
4:55 AM 44.6 °F 38.8 °F 42.8 °F 93% 29.44 in 8.0 mi ESE 11.5 mph - 0.02 in   Mostly Cloudy
5:15 AM 44.6 °F 39.7 °F 42.8 °F 93% 29.41 in 7.0 mi ESE 9.2 mph 17.3 mph N/A   Scattered Clouds
5:35 AM 46.4 °F 41.9 °F 42.8 °F 87% 29.39 in 7.0 mi SE 9.2 mph - N/A   Scattered Clouds
5:55 AM 46.4 °F 41.5 °F 44.6 °F 93% 29.37 in 6.0 mi ESE 10.4 mph 21.9 mph N/A   Scattered Clouds
6:15 AM 46.4 °F 40.7 °F 44.6 °F 93% 29.36 in 5.0 mi ESE 12.7 mph 18.4 mph N/A   Mostly Cloudy
6:35 AM 48.2 °F - 44.6 °F 87% 29.33 in 6.0 mi SE 11.5 mph 16.1 mph N/A   Scattered Clouds
6:55 AM 48.2 °F - 44.6 °F 87% 29.33 in 7.0 mi SE 10.4 mph - N/A   Clear
7:15 AM 48.2 °F - 46.4 °F 93% 29.35 in 7.0 mi SSE 16.1 mph 23.0 mph N/A   Scattered Clouds
7:35 AM 50.0 °F - 46.4 °F 87% 29.35 in 7.0 mi SE 12.7 mph 23.0 mph N/A   Overcast
7:55 AM 50.0 °F - 46.4 °F 87% 29.34 in 7.0 mi SSE 13.8 mph 20.7 mph N/A   Overcast
8:15 AM 51.8 °F - 46.4 °F 82% 29.35 in 8.0 mi SSE 13.8 mph 21.9 mph N/A   Overcast
8:35 AM 53.6 °F - 48.2 °F 82% 29.35 in 9.0 mi SSE 16.1 mph 20.7 mph N/A   Overcast
8:55 AM 53.6 °F - 48.2 °F 82% 29.35 in 10.0 mi SSE 16.1 mph 25.3 mph N/A   Overcast
11:55 AM - - - N/A% 29.51 in - West 12.7 mph 20.7 mph N/A   Unknown
12:15 PM 55.4 °F - 39.2 °F 54% 29.53 in 10.0 mi West 18.4 mph 28.8 mph N/A   Clear
12:35 PM 57.2 °F - 41.0 °F 55% 29.54 in 10.0 mi West 12.7 mph 24.2 mph N/A   Clear
12:55 PM 57.2 °F - 41.0 °F 55% 29.55 in 10.0 mi SW 10.4 mph 18.4 mph N/A   Clear
1:15 PM 60.8 °F - 39.2 °F 45% 29.56 in 10.0 mi West 17.3 mph - N/A   Clear
1:35 PM 62.6 °F - 39.2 °F 42% 29.57 in 10.0 mi WSW 13.8 mph 19.6 mph N/A   Clear